Weather Roundup
Issued by NWS Chicago, IL

Home | Current Version | Previous Version | Graphics & Text | Print | Product List | Glossary On
Versions: 1 2 3 4 5 6 7 8 9 10 11 12 13 14 15 16 17 18 19 20 21 22 23 24 25 26 27 28 29 30 31 32 33 34 35 36 37 38 39 40 41 42 43 44 45 46 47 48 49 50
000
NZUS59 KLOT 152108
HRRLOT

CHICAGO AREA WEATHER ROUNDUP
NATIONAL WEATHER SERVICE CHICAGO/ROMEOVILLE IL
300 PM CST FRI DEC 15 2017

NOTE: "FAIR" INDICATES FEW OR NO CLOUDS BELOW 12,000 FEET WITH NO
SIGNIFICANT WEATHER AND/OR OBSTRUCTIONS TO VISIBILITY.

* THESE STATIONS ARE NOT UNDER NWS QUALITY CONTROL. THEY ALSO MAY NOT
  REPORT WEATHER SUCH AS PRECIPITATION OR FOG.

ILZ005-006-012>014-019>023-152200-
NORTHEAST ILLINOIS

CITY           SKY/WX    TMP DP  RH WIND       PRES   REMARKS
OHARE          FLURRIES  32  22  66 W17       29.89S WCI  21
MIDWAY         FLURRIES  32  24  72 W13       29.91S WCI  22
AURORA         CLOUDY    33  22  63 SW14      29.91S WCI  23
LANSING*       CLOUDY    32  23  68 W13G22    29.92S WCI  23
JOLIET*        CLOUDY    34  22  61 W8        29.93S WCI  27
WAUKEGAN       CLOUDY    30  21  69 VRB7      29.86S WCI  23
DUPAGE AIRPORT CLOUDY    31  25  78 W16       29.89S WCI  20
WHEELING       CLOUDY    32  22  66 SW10      29.90S WCI  24
KANKAKEE*      CLOUDY    34  19  53 W16       29.95S WCI  24
MORRIS*        CLOUDY    34  19  55 W17       29.92S WCI  23
LEWIS AIRPORT* CLOUDY    32  23  69 W13       29.92S WCI  22
NORTHERLY ISL    N/A     32  19  59 SW6         N/A  WCI  26
$$

WIZ051-052-058>065-066-070>072-152200-
SOUTHEAST WISCONSIN

CITY           SKY/WX    TMP DP  RH WIND       PRES   REMARKS
MILWAUKEE      CLOUDY    30  18  60 W13G18    29.84F WCI  20
KENOSHA*       CLOUDY    31  20  63 SW16      29.85S WCI  20
RACINE*        CLOUDY    30  19  63 W12G18    29.86S WCI  20
BURLINGTON     PTSUNNY   30  23  74 W14G22    29.85S WCI  20
WAUKESHA       CLOUDY    25  18  74 W12       29.83F WCI  14
WEST BEND      CLOUDY    25  18  74 W10       29.82S WCI  15
$$

INZ001>003-010>013-019-020-152200-
NORTHWEST INDIANA

CITY           SKY/WX    TMP DP  RH WIND       PRES   REMARKS
GARY*          CLOUDY    34  18  51 W21       29.92S WCI  22
MICHIGAN CITY* NOT AVBL
RENSSELAER*    NOT AVBL
VALPARAISO     CLOUDY    33  19  56 W14       29.92R WCI  23
$$

LMZ740>746-152200-
SOUTHERN LAKE MICHIGAN

STATION/POSITION TIME  SKY/WX   TEMP WIND        PRES    VSBY
                                AIR  DIR/SP/G
                 (UTC)          (F)  (DEG/KT/KT) (MB)    (MI)
HARRISON CRIB    2030            32  260/ 18/ 21   N/A
BURNHAM HARBOR   2100            32  230/  8/ 13   N/A
CALUMET HARBOR   2048            32  230/  7/ 10 1012.3R
BURNS HARBOR     2040            32  260/ 18/ 20 1013.2S
MICHIGAN CITY    2040            31  250/ 24/ 26   N/A
$$

ABBREVIATIONS USED IN REMARKS
   TC - TEMPERATURE IN CELSIUS
  WCI - WIND CHILL INDEX
   HX - HEAT INDEX
  VSB - VISIBILITY
$$




USA.gov is the U.S. government's official web portal to all federal, state and local government web resources and services.